Temperature
2 2 2 2 2 1 1 1 2 3 2 4 4 3 3 4 4 4 4 4 4 3 3 3 3 3 3 3 3 3 3 3 2 2 2 2 2 1 1 1 1 1 1 1
1 2 1 2 2 2 2 2 2 2 2 3 3 3 3 3 3 3 3 3 3 3 3 3 3 3 3 3 3 3 3 2 2 2 2 2 2 1 1 1 1 1 1 0
1 1 1 1 2 1 1 1 1 2 3 3 2 2 2 3 3 3 3 3 3 3 2 2 2 2 2 3 3 2 2 2 2 2 1 1 1 1 1 0 0 0 0 0
0 1 2 3 2 2 2 1 1 1 2 2 2 2 3 3 3 3 3 3 2 2 2 2 2 2 2 2 2 2 2 2 1 1 1 1 1 1 0 0 -0 -0 -0 -0
-0 0 1 2 2 1 1 1 1 1 1 1 1 1 2 3 3 3 3 3 2 2 2 2 2 2 2 2 2 2 2 1 1 1 1 1 0 0 0 -0 -0 -0 -1 -1
-1 1 2 3 2 2 2 2 2 1 1 1 0 0 1 3 3 3 3 2 2 2 2 2 1 1 1 1 1 1 1 1 1 0 0 0 0 -0 -0 -0 -0 -1 -1 -1
-1 -0 1 2 1 1 2 3 3 2 2 1 0 1 3 3 3 2 2 2 2 2 1 1 1 1 1 1 1 1 1 1 0 0 -0 -0 -0 -0 -1 -1 -1 -1 -1 -2
-1 -0 1 1 0 1 2 3 3 3 3 2 2 2 2 2 2 2 2 2 1 1 1 1 1 1 1 1 1 0 0 0 -0 -0 -0 -1 -1 -1 -1 -1 -1 -1 -2 -2
-0 1 2 2 2 3 3 3 3 3 3 3 2 2 2 2 2 2 1 1 1 1 1 1 0 0 0 0 0 0 -0 -0 -0 -1 -1 -1 -1 -1 -1 -1 -2 -2 -2 -2
-2 -1 0 1 2 3 3 3 3 3 3 2 2 2 2 1 1 1 1 1 1 0 0 0 0 0 0 0 -0 -0 -0 -0 -1 -1 -1 -1 -1 -1 -1 -1 -2 -2 -2 -2
-2 -1 -0 1 2 3 3 3 3 3 3 2 2 2 1 1 1 1 0 0 0 0 0 0 0 0 -0 -0 -1 -1 -1 -1 -1 -1 -1 -1 -1 -2 -2 -2 -2 -3 -3 -3
0 1 0 2 3 3 3 2 2 2 2 2 2 1 1 1 1 0 0 0 -0 -0 -0 -0 -0 -0 -0 -1 -1 -1 -1 -1 -1 -1 -1 -2 -2 -2 -2 -2 -2 -3 -3 -3
2 2 2 2 2 2 2 2 2 2 2 1 1 1 1 0 0 -0 -0 -0 -0 -0 -0 -0 -0 -0 -1 -1 -1 -1 -1 -1 -1 -1 -2 -2 -2 -2 -2 -2 -3 -3 -3 -3
2 2 1 2 2 2 2 2 1 1 1 1 1 1 0 0 -0 -0 -0 -1 -1 -1 -1 -1 -1 -1 -1 -1 -1 -1 -1 -1 -1 -2 -2 -2 -2 -2 -3 -3 -3 -3 -3 -3
1 1 1 2 1 1 1 1 1 1 1 1 0 0 -0 -0 -1 -1 -1 -1 -1 -1 -1 -1 -1 -1 -1 -1 -1 -1 -1 -1 -2 -2 -2 -2 -2 -3 -3 -3 -3 -3 -3 -4
1 1 1 1 1 1 1 1 0 0 0 0 -0 -0 -1 -1 -1 -1 -1 -1 -1 -1 -1 -1 -1 -1 -1 -1 -2 -2 -2 -2 -2 -2 -2 -2 -2 -3 -3 -3 -3 -3 -4 -4
-0 -1 -0 -0 0 1 1 0 0 0 -0 -0 -0 -1 -1 -1 -1 -1 -1 -1 -1 -2 -2 -2 -2 -2 -2 -2 -2 -2 -2 -2 -2 -2 -2 -2 -3 -3 -3 -3 -3 -3 -4 -4
0 0 0 0 0 0 0 0 0 -0 -0 -1 -1 -1 -1 -1 -1 -1 -2 -2 -2 -2 -2 -2 -2 -2 -2 -2 -2 -2 -2 -2 -2 -3 -3 -3 -3 -3 -3 -3 -4 -4 -4 -4
0 0 0 0 -0 -0 -0 -0 -0 -1 -1 -1 -1 -1 -2 -2 -2 -2 -2 -2 -2 -2 -2 -2 -2 -2 -2 -2 -2 -2 -3 -3 -3 -3 -3 -3 -3 -3 -3 -4 -4 -4 -4 -4
0 0 0 -0 -0 -1 -1 -1 -1 -1 -1 -1 -2 -2 -2 -2 -2 -2 -2 -2 -2 -2 -2 -2 -2 -2 -2 -2 -3 -3 -3 -3 -3 -3 -3 -3 -3 -4 -4 -4 -4 -4 -4 -4
-0 -0 -0 -1 -1 -1 -1 -1 -1 -1 -2 -2 -2 -2 -2 -2 -2 -3 -3 -3 -3 -3 -3 -3 -3 -3 -3 -3 -3 -3 -3 -3 -3 -3 -3 -3 -4 -4 -4 -4 -4 -4 -4 -4
-1 -1 -1 -1 -1 -1 -1 -2 -2 -2 -2 -2 -2 -2 -3 -3 -3 -3 -3 -3 -3 -3 -3 -3 -3 -3 -3 -3 -3 -3 -3 -3 -4 -4 -4 -4 -4 -4 -4 -4 -4 -4 -5 -5
-1 -1 -1 -1 -1 -2 -2 -2 -2 -2 -2 -2 -3 -3 -3 -3 -3 -3 -4 -3 -4 -3 -3 -3 -3 -3 -3 -4 -4 -4 -4 -4 -4 -4 -4 -4 -4 -4 -4 -4 -5 -5 -5 -5
-2 -2 -2 -2 -2 -2 -2 -2 -2 -3 -3 -3 -3 -3 -3 -3 -4 -4 -4 -4 -4 -4 -4 -4 -4 -4 -4 -4 -4 -4 -4 -4 -4 -5 -5 -5 -5 -5 -5 -5 -5 -5 -5 -5
-2 -2 -2 -2 -2 -2 -3 -3 -3 -3 -3 -3 -3 -4 -4 -4 -4 -4 -4 -4 -4 -4 -4 -4 -4 -4 -5 -5 -5 -5 -5 -5 -5 -5 -5 -5 -5 -5 -5 -5 -5 -5 -5 -5
-3 -3 -3 -3 -3 -3 -3 -3 -3 -3 -4 -4 -4 -4 -4 -4 -4 -4 -4 -4 -4 -5 -5 -5 -5 -5 -5 -5 -5 -5 -5 -5 -5 -5 -5 -5 -5 -5 -5 -6 -6 -6 -6 -6
-3 -3 -3 -3 -3 -3 -4 -4 -4 -4 -4 -4 -4 -4 -5 -5 -5 -5 -5 -5 -5 -5 -5 -5 -5 -5 -5 -5 -6 -6 -6 -6 -6 -6 -6 -6 -6 -6 -6 -6 -6 -6 -6 -6
Wind_Speed
7 6 5 7 9 10 11 11 11 11 12 16 11 9 9 7 7 6 7 6 6 6 5 5 4 4 3 4 3 3 3 4 5 5 4 4 4 4 4 4 4 4 4 3
5 6 6 9 11 12 13 12 13 14 16 14 10 7 7 7 7 7 8 7 7 6 5 5 5 4 4 4 3 3 4 5 4 4 4 4 4 4 4 4 4 3 4 4
5 3 3 9 11 13 9 9 10 14 14 8 8 9 8 8 8 8 8 7 7 6 6 6 5 5 5 4 3 3 4 4 4 4 4 4 4 4 4 4 4 4 4 4
2 0 9 8 4 8 10 11 12 10 9 8 10 9 8 7 7 8 7 7 6 5 5 5 4 4 3 3 3 4 4 4 4 4 4 4 4 5 4 4 4 4 4 4
3 5 9 8 4 5 7 9 9 11 11 8 5 5 6 5 5 7 7 6 6 5 5 4 4 4 3 3 3 4 5 5 5 4 4 4 5 5 4 4 4 4 4 4
4 4 7 6 2 3 3 7 6 8 9 5 0 3 6 4 3 5 4 3 3 3 2 3 4 3 3 4 4 5 6 5 5 4 5 5 5 5 4 4 4 4 4 4
7 7 9 6 2 5 4 7 3 5 6 5 6 7 5 4 4 3 3 3 3 2 3 4 3 2 3 4 6 6 5 4 4 4 5 5 4 4 3 3 3 3 4 3
6 7 10 5 6 7 7 3 2 3 4 5 6 6 5 4 4 3 3 3 2 2 3 3 3 3 4 5 5 3 3 3 4 4 4 3 4 3 3 3 3 3 3 3
9 9 4 6 7 6 4 4 4 4 5 4 5 6 5 4 4 4 4 3 2 2 3 4 3 3 5 5 3 3 3 3 3 3 3 3 4 4 3 3 3 3 3 3
6 10 8 8 8 7 6 6 6 5 5 5 6 6 6 5 4 4 3 3 2 2 3 4 4 3 4 4 2 2 3 3 2 2 2 2 2 3 3 3 3 4 3 3
9 9 7 9 10 9 7 6 6 5 5 6 5 6 5 4 4 4 3 3 2 3 4 5 4 3 3 3 2 2 3 2 2 2 2 2 2 2 3 3 4 4 4 3
11 9 7 8 6 6 7 7 7 6 5 5 5 6 5 4 4 4 3 3 3 4 4 4 4 4 2 2 2 3 2 2 2 2 2 2 2 2 3 3 5 5 5 4
10 6 7 8 6 6 7 7 7 6 6 6 5 5 5 4 4 3 3 3 4 4 4 4 4 4 3 2 3 3 3 3 2 2 2 2 2 2 2 2 3 4 4 5
9 6 6 7 7 6 6 6 4 3 4 4 4 3 3 3 3 3 4 4 4 4 4 3 3 4 3 3 3 3 3 3 2 2 2 2 3 3 2 2 2 2 3 4
8 8 8 6 5 4 3 2 2 2 2 2 2 2 3 3 4 4 4 3 3 3 3 3 3 4 3 2 3 3 2 2 2 2 2 2 2 2 2 2 2 2 2 2
5 5 6 6 6 5 3 3 4 4 3 3 3 3 3 3 3 3 3 2 2 3 4 4 4 4 3 2 2 2 2 2 2 2 2 2 2 2 2 2 2 2 2 2
5 6 6 6 7 6 5 5 5 5 4 4 4 3 2 2 2 3 3 3 3 4 4 4 5 3 2 2 2 2 1 2 1 1 1 1 2 2 2 2 2 2 2 2
8 8 7 7 6 6 5 4 4 4 4 4 3 2 2 3 3 4 3 2 2 3 4 4 3 2 2 2 1 1 1 1 1 1 1 1 1 2 2 2 2 2 1 1
5 6 5 6 6 5 5 4 4 4 3 3 3 3 3 3 3 3 2 1 2 4 5 4 3 1 2 2 1 1 1 1 1 1 1 1 1 1 1 2 2 2 1 1
2 3 3 3 4 4 4 3 3 2 2 3 3 2 2 2 2 2 1 2 3 3 3 3 2 1 1 1 1 1 1 1 1 1 1 1 1 1 1 1 1 1 1 1
1 2 3 3 3 3 3 3 3 3 2 2 3 3 3 2 2 1 1 3 4 3 2 3 1 1 1 0 1 1 1 1 1 1 1 1 1 1 1 1 1 1 1 1
1 2 3 3 3 2 1 2 2 2 2 1 2 2 1 1 1 1 2 3 3 3 2 2 1 1 1 0 1 1 1 1 1 1 1 1 1 1 1 1 1 1 1 1
1 2 2 2 3 2 1 1 2 2 2 2 2 2 2 2 1 1 3 2 2 3 2 2 2 1 0 0 1 1 1 1 1 1 1 1 1 1 1 1 1 1 1 1
2 2 2 2 3 3 1 0 0 1 1 0 1 1 1 1 1 2 2 3 3 2 1 2 1 1 0 0 1 1 1 1 1 0 0 0 0 0 1 1 0 0 1 1
2 2 3 3 2 1 1 1 1 1 1 1 1 1 1 1 1 2 2 2 2 1 2 2 2 1 1 1 1 1 1 1 1 1 1 0 0 0 0 0 0 0 1 1
2 2 1 2 2 2 1 1 1 0 0 1 2 2 1 1 1 1 1 1 1 1 2 1 1 1 1 1 1 1 1 0 0 0 0 0 0 0 0 0 0 0 1 1
2 1 1 1 0 1 1 1 1 1 1 1 1 1 1 1 1 1 1 1 1 1 1 1 1 1 1 1 0 0 0 1 1 1 1 0 0 0 0 0 0 0 0 1
Wind_Direction
250 256 235 238 235 214 215 220 230 249 251 265 267 268 274 277 282 286 286 278 270 272 267 261 260 257 247 247 236 220 218 224 229 233 230 226 224 228 229 229 231 229 227 236
272 259 245 257 246 232 233 234 239 255 265 262 270 268 267 269 269 272 275 276 277 268 260 254 248 246 244 247 242 216 217 228 229 228 227 224 222 224 225 231 236 231 228 231
262 291 314 263 234 218 222 218 211 236 251 268 276 269 264 263 260 262 268 272 268 258 251 249 245 235 231 237 237 225 224 229 226 223 227 227 221 220 226 229 234 237 238 235
241 263 246 248 208 205 223 239 225 238 257 259 262 273 268 251 245 259 266 267 260 252 254 253 246 241 238 229 224 228 230 231 228 225 231 228 219 222 228 228 226 235 241 238
194 237 268 279 236 193 208 255 230 235 255 267 289 314 288 250 238 249 256 257 255 249 247 247 244 235 228 231 228 230 231 231 228 222 226 224 224 227 228 225 231 236 239 235
196 222 246 253 217 189 151 270 243 218 240 252 229 291 276 270 266 268 274 268 267 273 263 251 248 226 217 233 232 237 235 232 227 221 220 224 229 231 231 226 229 234 245 237
214 236 261 249 181 131 178 252 252 205 220 211 210 231 260 279 280 275 284 282 280 274 269 262 255 223 232 239 242 243 232 225 226 223 221 223 226 229 222 222 223 231 243 245
193 220 250 192 143 189 226 269 245 231 225 225 245 260 270 271 273 281 289 288 282 273 277 278 255 222 243 250 252 238 214 219 229 228 224 219 212 222 214 207 220 237 245 251
202 221 249 184 208 229 240 254 250 243 249 239 256 260 262 265 266 273 275 276 274 265 279 285 267 230 241 255 251 224 205 219 230 229 225 215 209 214 215 209 217 233 231 239
241 256 252 246 243 249 241 243 254 251 248 241 248 254 261 262 266 273 278 279 280 276 277 284 281 254 243 254 241 212 218 226 223 219 230 224 214 210 210 211 216 224 227 234
247 260 275 259 241 243 250 249 257 259 245 235 235 250 248 252 257 259 270 279 270 255 267 278 287 273 257 237 210 218 228 227 225 218 216 223 219 218 219 221 219 221 224 221
236 232 221 251 245 225 229 243 241 240 251 245 227 237 242 244 249 255 262 269 272 270 269 277 282 278 267 240 206 207 228 224 220 219 218 215 231 271 258 246 254 246 238 232
238 245 238 254 258 235 234 240 238 230 234 245 239 225 231 246 253 254 262 265 263 269 270 274 279 274 262 241 214 209 221 223 220 219 217 216 221 232 267 286 271 263 254 244
238 240 254 251 251 248 236 238 236 238 237 230 233 225 223 241 256 258 262 267 269 275 278 275 274 271 259 238 222 223 222 227 224 221 217 215 222 230 230 239 265 283 273 258
237 229 235 250 254 248 230 206 205 236 241 242 224 219 222 232 251 263 270 277 283 285 285 280 275 279 267 232 223 222 220 224 223 223 216 214 219 227 229 233 240 254 279 278
243 238 233 240 246 244 218 200 213 234 231 236 238 241 241 239 252 269 277 271 270 279 281 277 273 274 267 233 219 221 226 235 224 208 208 208 211 218 222 227 239 242 241 246
215 226 221 229 234 231 221 216 214 223 226 229 237 242 244 251 271 278 282 276 265 269 273 272 275 279 262 234 213 222 222 224 216 200 216 221 215 214 215 218 231 245 244 236
222 227 218 214 218 218 218 213 210 213 220 230 229 217 218 228 250 267 278 292 304 303 291 280 282 286 265 234 207 204 197 202 201 204 217 219 215 205 203 209 220 234 255 245
226 225 222 215 210 201 203 207 210 212 215 201 200 221 234 238 245 263 280 293 293 294 299 301 302 280 258 233 175 171 183 200 213 218 216 226 227 206 195 199 209 217 222 219
220 208 200 195 182 177 187 195 190 196 204 186 192 214 240 254 250 255 264 268 267 270 281 289 283 264 254 224 157 158 173 189 208 214 210 214 216 218 202 205 206 210 212 215
200 176 169 168 162 167 178 179 176 198 209 187 191 208 228 251 244 231 246 282 290 289 289 291 276 258 245 219 168 153 164 178 199 213 218 222 221 215 205 209 207 211 212 216
156 154 161 156 149 154 164 165 172 181 188 198 206 204 208 250 269 279 264 259 282 302 311 287 275 262 256 193 172 166 174 177 193 201 208 214 207 205 206 210 214 213 213 212
134 151 157 156 154 149 108 129 164 171 185 201 211 212 217 240 241 251 288 290 293 299 310 284 286 284 253 135 158 163 173 181 191 199 208 216 224 213 205 211 217 208 201 220
126 128 130 123 119 116 108 57 118 151 166 224 236 219 212 248 294 278 271 291 308 315 321 313 327 330 49 76 137 148 172 189 184 174 176 176 202 198 186 189 211 228 209 218
130 127 126 129 135 162 176 127 78 71 64 24 354 347 305 245 252 288 310 306 310 340 345 344 3 25 44 74 112 133 152 162 141 126 126 144 171 196 178 171 204 215 214 218
142 151 164 173 179 180 169 155 163 200 124 13 346 346 349 349 342 333 342 351 357 356 353 348 353 17 39 90 118 128 143 160 149 117 114 114 100 67 61 118 164 232 245 238
126 135 132 113 140 176 173 176 189 222 219 213 288 307 323 347 19 23 11 6 9 5 358 358 3 7 12 37 74 105 137 148 150 150 148 142 145 215 265 223 209 222 256 236
Height
1466 1464 1465 1464 1464 1466 1468 1465 1464 1455 1452 1440 1438 1438 1436 1435 1434 1433 1432 1431 1430 1429 1428 1427 1427 1426 1426 1426 1426 1426 1425 1425 1425 1426 1427 1427 1428 1428 1428 1429 1429 1429 1429 1429
1464 1461 1462 1461 1458 1458 1457 1457 1454 1450 1444 1434 1433 1434 1433 1432 1431 1429 1428 1427 1426 1425 1424 1424 1423 1423 1422 1422 1422 1422 1421 1421 1422 1422 1423 1423 1423 1424 1424 1425 1425 1425 1425 1425
1463 1462 1460 1456 1447 1448 1448 1445 1445 1443 1434 1430 1431 1429 1428 1427 1427 1426 1424 1423 1422 1421 1420 1420 1419 1419 1419 1418 1418 1418 1418 1418 1418 1419 1419 1419 1419 1420 1420 1420 1421 1421 1421 1421
1464 1464 1460 1438 1435 1436 1438 1435 1435 1432 1428 1427 1427 1425 1424 1423 1423 1422 1421 1419 1418 1417 1416 1416 1416 1415 1415 1415 1415 1415 1415 1415 1415 1415 1415 1415 1415 1416 1416 1416 1417 1417 1417 1417
1464 1461 1449 1436 1432 1433 1435 1430 1425 1426 1424 1423 1423 1422 1419 1419 1418 1418 1417 1415 1414 1413 1413 1412 1412 1411 1411 1411 1411 1411 1411 1411 1411 1411 1412 1412 1412 1412 1412 1412 1412 1413 1413 1413
1460 1456 1446 1429 1427 1426 1430 1428 1418 1419 1419 1420 1421 1424 1418 1415 1415 1414 1413 1412 1411 1410 1409 1408 1408 1407 1407 1407 1407 1407 1408 1408 1408 1408 1408 1408 1408 1409 1409 1409 1409 1409 1409 1409
1454 1452 1439 1426 1425 1427 1433 1422 1414 1414 1415 1416 1417 1417 1414 1412 1411 1411 1410 1408 1407 1406 1405 1405 1405 1404 1403 1403 1403 1404 1404 1404 1404 1405 1405 1405 1405 1405 1405 1405 1405 1405 1405 1406
1449 1448 1434 1421 1423 1424 1418 1413 1412 1412 1412 1412 1412 1411 1411 1410 1409 1408 1407 1405 1404 1403 1402 1402 1402 1401 1400 1400 1400 1400 1400 1401 1401 1401 1402 1402 1402 1402 1402 1401 1401 1401 1401 1401
1432 1425 1416 1415 1414 1412 1412 1411 1410 1410 1410 1410 1409 1408 1407 1406 1406 1405 1404 1403 1402 1401 1400 1399 1399 1398 1397 1397 1397 1397 1397 1397 1397 1398 1398 1398 1398 1398 1398 1398 1397 1398 1398 1398
1425 1416 1412 1411 1410 1409 1409 1408 1407 1407 1407 1407 1406 1405 1404 1403 1402 1402 1401 1400 1399 1398 1397 1396 1396 1395 1394 1394 1394 1393 1393 1394 1394 1394 1394 1394 1394 1394 1394 1394 1394 1395 1394 1394
1418 1410 1408 1404 1403 1403 1404 1404 1404 1404 1404 1403 1402 1401 1401 1400 1399 1398 1398 1397 1397 1396 1394 1393 1393 1392 1392 1391 1391 1390 1390 1391 1391 1391 1391 1391 1391 1391 1391 1392 1392 1392 1392 1392
1406 1400 1402 1399 1398 1399 1400 1399 1399 1400 1399 1399 1399 1398 1397 1397 1396 1396 1395 1394 1394 1393 1392 1391 1390 1389 1389 1389 1388 1388 1388 1388 1388 1388 1388 1388 1388 1388 1388 1389 1389 1389 1389 1389
1394 1394 1395 1394 1394 1395 1395 1395 1395 1395 1395 1394 1395 1395 1394 1393 1393 1392 1392 1391 1391 1390 1389 1388 1387 1386 1386 1386 1386 1385 1385 1385 1385 1385 1385 1385 1385 1385 1385 1385 1386 1386 1386 1386
1390 1391 1390 1389 1389 1390 1390 1390 1391 1390 1390 1391 1391 1391 1391 1390 1390 1389 1389 1388 1388 1387 1386 1385 1384 1383 1383 1383 1383 1383 1383 1383 1382 1382 1382 1382 1382 1383 1382 1382 1382 1382 1383 1383
1384 1385 1385 1384 1385 1385 1386 1386 1386 1386 1387 1387 1387 1387 1387 1386 1386 1386 1386 1385 1384 1383 1382 1382 1381 1381 1380 1380 1380 1380 1380 1380 1380 1380 1380 1380 1380 1380 1380 1380 1380 1380 1380 1381
1379 1379 1380 1380 1380 1381 1382 1382 1382 1382 1383 1383 1384 1384 1384 1383 1383 1383 1383 1382 1381 1380 1379 1379 1378 1378 1378 1378 1377 1377 1377 1377 1377 1377 1377 1377 1377 1377 1377 1377 1378 1378 1378 1378
1374 1374 1374 1375 1376 1377 1378 1378 1379 1379 1380 1380 1380 1381 1381 1380 1380 1380 1380 1379 1378 1378 1377 1377 1376 1376 1375 1375 1375 1374 1374 1374 1374 1374 1374 1374 1374 1374 1375 1375 1375 1375 1375 1376
1368 1369 1370 1371 1372 1373 1374 1375 1376 1376 1377 1377 1377 1378 1378 1377 1377 1377 1377 1376 1376 1375 1375 1374 1374 1373 1373 1373 1372 1372 1372 1372 1372 1372 1372 1372 1372 1372 1373 1373 1373 1373 1373 1374
1363 1364 1365 1367 1368 1369 1370 1372 1373 1373 1374 1374 1375 1375 1375 1375 1375 1375 1374 1374 1373 1372 1372 1372 1371 1371 1370 1370 1370 1370 1369 1369 1369 1369 1370 1370 1370 1370 1370 1370 1371 1371 1371 1371
1361 1361 1362 1363 1365 1366 1368 1369 1370 1371 1372 1372 1372 1372 1372 1372 1372 1372 1372 1371 1371 1371 1370 1369 1369 1368 1368 1368 1368 1367 1367 1367 1367 1367 1367 1368 1368 1368 1368 1368 1368 1368 1369 1369
1359 1360 1360 1361 1363 1364 1366 1367 1368 1368 1369 1369 1369 1369 1369 1370 1370 1369 1369 1368 1368 1368 1368 1367 1367 1366 1366 1365 1365 1365 1365 1365 1365 1365 1365 1365 1366 1366 1366 1366 1366 1366 1367 1367
1358 1359 1359 1360 1361 1363 1364 1365 1366 1366 1367 1367 1367 1367 1367 1367 1367 1367 1367 1367 1366 1366 1365 1365 1364 1364 1363 1363 1363 1363 1363 1363 1363 1363 1363 1363 1363 1363 1364 1364 1364 1364 1365 1365
1358 1358 1359 1360 1361 1362 1363 1364 1365 1365 1365 1365 1365 1365 1365 1365 1364 1364 1364 1364 1364 1364 1363 1362 1362 1362 1361 1361 1361 1361 1361 1361 1361 1361 1361 1361 1361 1361 1362 1362 1362 1363 1363 1363
1357 1358 1359 1360 1361 1361 1362 1363 1363 1363 1363 1363 1363 1363 1363 1362 1362 1362 1362 1362 1362 1361 1361 1360 1360 1359 1359 1359 1359 1359 1359 1359 1359 1359 1359 1359 1360 1360 1360 1360 1361 1361 1361 1362
1356 1357 1358 1359 1360 1360 1361 1361 1361 1362 1361 1361 1361 1361 1361 1361 1361 1360 1360 1359 1359 1359 1358 1358 1358 1357 1357 1357 1357 1357 1357 1357 1357 1358 1358 1358 1358 1358 1359 1359 1359 1360 1360 1360
1356 1357 1358 1359 1359 1360 1360 1360 1360 1360 1360 1359 1359 1360 1359 1359 1359 1358 1358 1358 1357 1357 1357 1356 1356 1355 1355 1355 1355 1355 1355 1355 1355 1356 1356 1356 1357 1357 1357 1357 1358 1358 1358 1358
1355 1356 1356 1357 1358 1359 1359 1359 1359 1359 1359 1358 1358 1358 1358 1357 1357 1357 1357 1356 1356 1355 1355 1355 1354 1354 1354 1353 1353 1353 1353 1353 1354 1354 1354 1355 1355 1355 1355 1356 1356 1356 1357 1357